contact:dominique.lefevre@mio.osupytheas.fr, maurice.libes@osupytheas.fr
Project:EMSO Ligure-ouest http://www.emso-fr.org/EMSO-France
Sensor Aquadopp, line 13 Serial AQD14315 
DOI : "https://doi.org/10.17882/74513; https://doi.org/10.17882/83244" 
Title:EMSO Ligure Ouest : Data ligne ALBATROSS capteur AQUADOPP - deploiement 2021
Id,Date,Profondeur,Latitude,Longitude,X_East,Y_North,Z_Up,Amplitude_X,Amplitude_Y,Amplitude_Z,Batterie,SoundSpeed,Heading,Pitch,Roll,Pressure,Temperature,Speed,Direction
, , m, degrees North, degrees East, m.s-1, m.s-1,m.s-1, 1, 1, 1, Volt, m.s-1, degree, degree, degree, dbar, degree_C, m.s-1, degree
09,2021-11-22T22:00:00,2000.0,42.79,6.0312,0.005,0.028,-0.009,60.0,59.0,56.0,12.5,1504.6,284.7,-0.7,1.1,1990.728,13.27,0.028,10.1
09,2021-11-22T22:30:00,2000.0,42.79,6.0312,-0.008,0.006,-0.025,59.0,56.0,59.0,12.5,1504.6,285.3,-0.6,1.0,1990.656,13.27,0.01,306.9
09,2021-11-22T23:00:00,2000.0,42.79,6.0312,-0.011,0.027,-0.04,60.0,57.0,59.0,12.5,1504.6,284.0,-0.8,1.1,1990.673,13.27,0.029,337.8
09,2021-11-22T23:30:00,2000.0,42.79,6.0312,-0.003,0.006,0.012,63.0,54.0,59.0,12.5,1504.6,282.1,-0.8,1.0,1990.628,13.27,0.006,333.4
09,2021-11-23T00:30:00,2000.0,42.79,6.0312,-0.003,0.002,0.014,60.0,56.0,58.0,12.6,1504.6,283.2,-0.7,1.0,1990.598,13.27,0.003,303.7
09,2021-11-23T01:00:00,2000.0,42.79,6.0312,-0.016,0.013,0.007,60.0,59.0,60.0,12.5,1504.6,281.6,-0.7,1.1,1990.579,13.27,0.02,309.1
09,2021-11-23T01:30:00,2000.0,42.79,6.0312,-0.01,0.027,-0.021,62.0,57.0,62.0,12.5,1504.6,286.8,-0.9,1.0,1990.544,13.27,0.028,339.7
09,2021-11-23T02:00:00,2000.0,42.79,6.0312,-0.02,0.017,-0.018,61.0,58.0,58.0,12.5,1504.6,289.9,-0.7,1.0,1990.53,13.27,0.026,310.4
09,2021-11-23T02:30:00,2000.0,42.79,6.0312,-0.021,0.01,-0.007,61.0,57.0,59.0,12.5,1504.6,288.8,-0.9,1.0,1990.542,13.27,0.023,295.5
09,2021-11-23T03:00:00,2000.0,42.79,6.0312,0.0,0.028,-0.003,59.0,53.0,58.0,12.5,1504.6,295.8,-0.7,1.0,1990.59,13.27,0.028,0.0
09,2021-11-23T03:30:00,2000.0,42.79,6.0312,-0.038,0.018,0.013,61.0,58.0,58.0,12.5,1504.6,297.2,-0.7,1.1,1990.525,13.27,0.042,295.3
09,2021-11-23T04:00:00,2000.0,42.79,6.0312,-0.006,0.0,-0.017,58.0,57.0,57.0,12.5,1504.6,292.0,-0.7,1.1,1990.575,13.27,0.006,270.0
09,2021-11-23T04:30:00,2000.0,42.79,6.0312,-0.024,0.025,-0.008,57.0,58.0,58.0,12.5,1504.6,297.5,-0.8,1.0,1990.536,13.27,0.034,316.2
09,2021-11-23T05:00:00,2000.0,42.79,6.0312,-0.021,0.019,0.015,60.0,57.0,61.0,12.5,1504.6,294.9,-0.8,1.1,1990.599,13.27,0.028,312.1
09,2021-11-23T05:30:00,2000.0,42.79,6.0312,-0.002,0.02,0.033,60.0,58.0,59.0,12.5,1504.6,296.5,-0.7,1.1,1990.607,13.27,0.02,354.3
09,2021-11-23T06:00:00,2000.0,42.79,6.0312,-0.028,0.019,0.011,58.0,56.0,58.0,12.5,1504.6,295.5,-0.7,1.0,1990.642,13.27,0.033,304.2
09,2021-11-23T06:30:00,2000.0,42.79,6.0312,-0.002,0.018,-0.022,59.0,56.0,58.0,12.5,1504.6,300.2,-0.8,1.0,1990.67,13.27,0.018,353.7
09,2021-11-23T07:00:00,2000.0,42.79,6.0312,-0.032,0.039,0.005,60.0,58.0,61.0,12.5,1504.6,301.2,-0.8,1.0,1990.686,13.27,0.05,320.6
09,2021-11-23T07:30:00,2000.0,42.79,6.0312,-0.003,0.025,-0.014,60.0,56.0,57.0,12.5,1504.6,302.1,-0.8,1.0,1990.751,13.27,0.025,353.2
09,2021-11-23T08:00:00,2000.0,42.79,6.0312,-0.001,0.041,0.003,59.0,55.0,58.0,12.5,1504.6,302.2,-0.8,1.0,1990.76,13.27,0.041,358.6
09,2021-11-23T08:30:00,2000.0,42.79,6.0312,-0.007,0.024,0.005,57.0,57.0,60.0,12.5,1504.6,304.0,-0.9,1.0,1990.748,13.27,0.025,343.7
09,2021-11-23T09:00:00,2000.0,42.79,6.0312,-0.011,0.029,0.011,59.0,56.0,57.0,12.5,1504.6,303.4,-0.6,1.0,1990.767,13.27,0.031,339.2
09,2021-11-23T09:30:00,2000.0,42.79,6.0312,-0.001,0.008,-0.046,60.0,57.0,60.0,12.5,1504.6,300.3,-0.6,1.1,1990.768,13.27,0.008,352.9
09,2021-11-23T10:00:00,2000.0,42.79,6.0312,-0.007,0.039,0.001,60.0,56.0,58.0,12.5,1504.6,300.9,-0.9,1.0,1990.777,13.27,0.039,349.8
09,2021-11-23T10:30:00,2000.0,42.79,6.0312,-0.007,0.038,-0.016,57.0,55.0,55.0,12.5,1504.6,293.3,-0.9,0.9,1990.797,13.27,0.038,349.6
09,2021-11-23T11:00:00,2000.0,42.79,6.0312,0.001,0.02,-0.012,58.0,57.0,58.0,12.5,1504.6,293.2,-0.6,1.1,1990.797,13.27,0.02,2.9
09,2021-11-23T11:30:00,2000.0,42.79,6.0312,0.008,0.028,-0.008,59.0,56.0,57.0,12.5,1504.6,292.3,-0.8,1.1,1990.729,13.27,0.029,15.9
09,2021-11-23T12:00:00,2000.0,42.79,6.0312,-0.01,0.029,0.003,58.0,53.0,60.0,12.5,1504.6,278.9,-0.7,1.0,1990.73,13.27,0.03,341.0
09,2021-11-23T12:30:00,2000.0,42.79,6.0312,0.012,0.017,-0.013,58.0,55.0,58.0,12.6,1504.6,4.9,-0.7,0.9,1990.718,13.27,0.02,35.2
09,2021-11-23T13:30:00,2000.0,42.79,6.0312,-0.016,0.01,-0.027,58.0,57.0,63.0,12.5,1504.6,6.6,-0.7,0.9,1990.68,13.27,0.018,302.0
09,2021-11-23T14:00:00,2000.0,42.79,6.0312,0.012,0.001,0.003,61.0,57.0,58.0,12.6,1504.6,5.3,-0.8,0.9,1990.66,13.27,0.012,85.2
09,2021-11-23T14:30:00,2000.0,42.79,6.0312,0.004,0.005,0.034,62.0,57.0,56.0,12.5,1504.6,5.6,-0.8,0.9,1990.688,13.27,0.006,38.7
09,2021-11-23T15:00:00,2000.0,42.79,6.0312,-0.02,0.032,0.008,62.0,58.0,58.0,12.5,1504.6,5.0,-0.7,0.9,1990.602,13.27,0.037,328.0
09,2021-11-23T15:30:00,2000.0,42.79,6.0312,-0.013,0.029,0.009,60.0,58.0,60.0,12.5,1504.6,3.0,-0.7,0.9,1990.687,13.27,0.031,335.9
09,2021-11-23T16:00:00,2000.0,42.79,6.0312,0.016,0.001,-0.005,56.0,58.0,60.0,12.6,1504.6,2.8,-0.8,0.9,1990.669,13.27,0.016,86.4
09,2021-11-23T16:30:00,2000.0,42.79,6.0312,-0.009,0.013,0.022,58.0,56.0,59.0,12.5,1504.6,5.7,-0.8,0.9,1990.602,13.27,0.015,325.3
09,2021-11-23T17:00:00,2000.0,42.79,6.0312,-0.007,0.023,-0.034,61.0,55.0,62.0,12.5,1504.6,10.2,-0.7,0.9,1990.664,13.27,0.024,343.1
09,2021-11-23T17:30:00,2000.0,42.79,6.0312,0.002,0.028,-0.023,58.0,56.0,59.0,12.5,1504.6,10.3,-0.7,0.9,1990.609,13.27,0.028,4.1
09,2021-11-23T18:00:00,2000.0,42.79,6.0312,0.02,0.018,0.032,59.0,54.0,58.0,12.5,1504.6,7.6,-0.8,0.9,1990.655,13.27,0.026,48.0
09,2021-11-23T18:30:00,2000.0,42.79,6.0312,0.012,0.013,0.0,61.0,59.0,59.0,12.5,1504.6,7.1,-0.8,0.9,1990.671,13.27,0.017,42.7
09,2021-11-23T19:00:00,2000.0,42.79,6.0312,-0.002,0.019,-0.003,60.0,58.0,60.0,12.5,1504.6,2.7,-0.8,0.9,1990.687,13.27,0.019,354.0
09,2021-11-23T19:30:00,2000.0,42.79,6.0312,0.002,0.016,0.014,60.0,56.0,60.0,12.5,1504.6,3.9,-0.8,1.0,1990.705,13.27,0.016,7.1
09,2021-11-23T20:00:00,2000.0,42.79,6.0312,-0.005,0.028,-0.015,63.0,57.0,61.0,12.5,1504.6,3.2,-0.8,0.9,1990.704,13.27,0.028,349.9
09,2021-11-23T20:30:00,2000.0,42.79,6.0312,-0.013,0.006,0.019,59.0,59.0,58.0,12.5,1504.6,1.4,-0.8,0.9,1990.706,13.27,0.014,294.8
09,2021-11-23T21:00:00,2000.0,42.79,6.0312,0.002,0.021,0.04,59.0,57.0,58.0,12.5,1504.6,4.0,-0.8,0.9,1990.735,13.27,0.021,5.4
